| time (UTC) | temp C | wind direction | speed KPH | gust KPH | rain 1hr cm | rain 24hr cm | rain mn cm | humidity % | barometer mb |
| 20260503183058 | 17 | 157 | 6.4 | 17.7 | 0.00 | 0.00 | 0.00 | 53 | 1018.5 |
| 20260503182531 | 17 | 179 | 9.7 | 17.7 | 0.00 | 0.00 | 0.00 | 53 | 1018.6 |
| 20260503182031 | 18 | 157 | 8.0 | 19.3 | 0.00 | 0.00 | 0.00 | 52 | 1018.4 |
| 20260503181548 | 18 | 155 | 9.7 | 19.3 | 0.00 | 0.00 | 0.00 | 52 | 1018.5 |
| 20260503181031 | 18 | 150 | 11.3 | 19.3 | 0.00 | 0.00 | 0.00 | 52 | 1018.5 |
| 20260503180530 | 18 | 138 | 8.0 | 19.3 | 0.00 | 0.00 | 0.00 | 53 | 1018.5 |
| 20260503180055 | 18 | 164 | 9.7 | 19.3 | 0.00 | 0.00 | 0.00 | 52 | 1018.5 |
| 20260503175532 | 18 | 153 | 8.0 | 19.3 | 0.00 | 0.00 | 0.00 | 53 | 1018.4 |
| 20260503175032 | 18 | 148 | 8.0 | 17.7 | 0.00 | 0.00 | 0.00 | 53 | 1018.4 |
| 20260503174544 | 19 | 158 | 8.0 | 19.3 | 0.00 | 0.00 | 0.00 | 52 | 1018.3 |
| 20260503174032 | 19 | 159 | 9.7 | 19.3 | 0.00 | 0.00 | 0.00 | 51 | 1018.4 |
| 20260503173533 | 19 | 157 | 9.7 | 19.3 | 0.00 | 0.00 | 0.00 | 51 | 1018.4 |
| 20260503173105 | 20 | 140 | 11.3 | 19.3 | 0.00 | 0.00 | 0.00 | 51 | 1018.5 |
| 20260503172532 | 20 | 153 | 8.0 | 20.9 | 0.00 | 0.00 | 0.00 | 51 | 1018.4 |
| 20260503172031 | 20 | 167 | 9.7 | 20.9 | 0.00 | 0.00 | 0.00 | 51 | 1018.5 |
| 20260503171550 | 20 | 163 | 11.3 | 19.3 | 0.00 | 0.00 | 0.00 | 51 | 1018.5 |
| 20260503171031 | 20 | 161 | 11.3 | 19.3 | 0.00 | 0.00 | 0.00 | 50 | 1018.4 |
| 20260503170532 | 20 | 148 | 11.3 | 24.1 | 0.00 | 0.00 | 0.00 | 50 | 1018.4 |
| 20260503150531 | 22 | 184 | 11.3 | 19.3 | 0.00 | 0.00 | 0.00 | 42 | 1018.9 |
| 20260503131030 | 22 | 197 | 8.0 | 19.3 | 0.00 | 0.00 | 0.00 | 38 | 1020.1 |
| 20260503130531 | 22 | 166 | 9.7 | 19.3 | 0.00 | 0.00 | 0.00 | 39 | 1020.1 |
| 20260503110531 | 21 | 26 | 3.2 | 9.7 | 0.00 | 0.00 | 0.00 | 49 | 1020.6 |
| 20260503081547 | 16 | 75 | 3.2 | 11.3 | 0.00 | 0.00 | 0.00 | 64 | 1021.9 |
| 20260503081032 | 16 | 74 | 4.8 | 11.3 | 0.00 | 0.00 | 0.00 | 64 | 1021.9 |
| 20260503080532 | 15 | 82 | 1.6 | 9.7 | 0.00 | 0.00 | 0.00 | 68 | 1021.9 |
| 20260503072530 | 14 | 66 | 3.2 | 11.3 | 0.00 | 0.00 | 0.00 | 72 | 1022.1 |
| 20260503072031 | 13 | 55 | 3.2 | 11.3 | 0.00 | 0.00 | 0.00 | 73 | 1022.1 |
| 20260503071557 | 13 | 79 | 3.2 | 11.3 | 0.00 | 0.00 | 0.00 | 73 | 1022.1 |
| 20260503071032 | 13 | 69 | 4.8 | 11.3 | 0.00 | 0.00 | 0.00 | 72 | 1022.2 |
| 20260503070532 | 13 | 57 | 4.8 | 11.3 | 0.00 | 0.00 | 0.00 | 72 | 1022.2 |
| 20260503055033 | 11 | 77 | 0.0 | 3.2 | 0.00 | 0.00 | 0.00 | 73 | 1022.2 |
| 20260503054545 | 11 | 0 | 0.0 | 3.2 | 0.00 | 0.00 | 0.00 | 74 | 1022.2 |
| 20260503054032 | 11 | 0 | 0.0 | 1.6 | 0.00 | 0.00 | 0.00 | 74 | 1022.1 |
| 20260503053531 | 11 | 0 | 0.0 | 1.6 | 0.00 | 0.00 | 0.00 | 75 | 1022.1 |
| 20260503053047 | 11 | 0 | 0.0 | 1.6 | 0.00 | 0.00 | 0.00 | 75 | 1022.0 |
| 20260503052534 | 10 | 0 | 0.0 | 3.2 | 0.00 | 0.00 | 0.00 | 76 | 1022.0 |
| 20260503052031 | 10 | 0 | 0.0 | 3.2 | 0.00 | 0.00 | 0.00 | 77 | 1021.9 |
| 20260503051550 | 10 | 11 | 0.0 | 3.2 | 0.00 | 0.00 | 0.00 | 78 | 1022.0 |
| 20260503051030 | 9 | 0 | 0.0 | 3.2 | 0.00 | 0.00 | 0.00 | 78 | 1021.9 |
| 20260503050531 | 9 | 0 | 0.0 | 3.2 | 0.00 | 0.00 | 0.00 | 78 | 1021.9 |
| 20260503050049 | 9 | 9 | 0.0 | 3.2 | 0.00 | 0.00 | 0.00 | 79 | 1021.9 |
| 20260503045534 | 9 | 0 | 0.0 | 3.2 | 0.00 | 0.00 | 0.00 | 80 | 1021.9 |
| 20260503045031 | 8 | 101 | 0.0 | 3.2 | 0.00 | 0.00 | 0.00 | 81 | 1021.8 |
| 20260503044548 | 8 | 101 | 0.0 | 4.8 | 0.00 | 0.00 | 0.00 | 82 | 1021.8 |
| 20260503044030 | 8 | 0 | 0.0 | 4.8 | 0.00 | 0.00 | 0.00 | 82 | 1021.8 |
| 20260503043531 | 8 | 101 | 1.6 | 4.8 | 0.00 | 0.00 | 0.00 | 83 | 1021.7 |
| 20260503043051 | 8 | 117 | 3.2 | 4.8 | 0.00 | 0.00 | 0.00 | 83 | 1021.7 |
| 20260503042530 | 7 | 140 | 1.6 | 4.8 | 0.00 | 0.00 | 0.00 | 82 | 1021.8 |
| 20260503042031 | 7 | 146 | 1.6 | 6.4 | 0.00 | 0.00 | 0.00 | 82 | 1021.8 |
| 20260503041547 | 7 | 142 | 3.2 | 6.4 | 0.00 | 0.00 | 0.00 | 81 | 1021.7 |
| 20260503041032 | 7 | 146 | 3.2 | 6.4 | 0.00 | 0.00 | 0.00 | 81 | 1021.7 |
| 20260503040533 | 7 | 131 | 3.2 | 6.4 | 0.00 | 0.00 | 0.00 | 79 | 1021.7 |
| 20260503040044 | 8 | 143 | 4.8 | 6.4 | 0.00 | 0.00 | 0.00 | 78 | 1021.7 |
| 20260503035531 | 8 | 129 | 3.2 | 6.4 | 0.00 | 0.00 | 0.00 | 78 | 1021.7 |
| 20260503035031 | 8 | 128 | 1.6 | 4.8 | 0.00 | 0.00 | 0.00 | 80 | 1021.7 |
| 20260503034549 | 8 | 83 | 3.2 | 4.8 | 0.00 | 0.00 | 0.00 | 79 | 1021.6 |
| 20260503034030 | 8 | 95 | 1.6 | 6.4 | 0.00 | 0.00 | 0.00 | 78 | 1021.7 |
| 20260503033530 | 8 | 108 | 3.2 | 6.4 | 0.00 | 0.00 | 0.00 | 77 | 1021.7 |
| 20260503033051 | 8 | 143 | 3.2 | 6.4 | 0.00 | 0.00 | 0.00 | 77 | 1021.7 |
| 20260503032530 | 9 | 119 | 3.2 | 6.4 | 0.00 | 0.00 | 0.00 | 76 | 1021.6 |
| 20260503032030 | 9 | 115 | 3.2 | 4.8 | 0.00 | 0.00 | 0.00 | 76 | 1021.7 |
| 20260503031549 | 9 | 98 | 3.2 | 6.4 | 0.00 | 0.00 | 0.00 | 76 | 1021.6 |
| 20260503031031 | 9 | 82 | 3.2 | 6.4 | 0.00 | 0.00 | 0.00 | 76 | 1021.6 |
| 20260503030530 | 10 | 96 | 3.2 | 6.4 | 0.00 | 0.00 | 0.00 | 76 | 1021.6 |
| 20260503030046 | 10 | 111 | 1.6 | 9.7 | 0.00 | 0.00 | 0.00 | 76 | 1021.6 |
| 20260503025531 | 10 | 86 | 1.6 | 9.7 | 0.00 | 0.00 | 0.00 | 76 | 1021.6 |
| 20260503025030 | 9 | 78 | 3.2 | 9.7 | 0.00 | 0.00 | 0.00 | 76 | 1021.6 |
| 20260503024547 | 9 | 91 | 0.0 | 3.2 | 0.00 | 0.00 | 0.00 | 76 | 1021.5 |
| 20260503024031 | 9 | 0 | 0.0 | 1.6 | 0.00 | 0.00 | 0.00 | 75 | 1021.6 |
| 20260503023531 | 9 | 0 | 0.0 | 3.2 | 0.00 | 0.00 | 0.00 | 75 | 1021.6 |
| 20260503023042 | 9 | 113 | 0.0 | 4.8 | 0.00 | 0.00 | 0.00 | 76 | 1021.5 |
| 20260503022530 | 9 | 113 | 1.6 | 4.8 | 0.00 | 0.00 | 0.00 | 76 | 1021.5 |
| 20260503022030 | 9 | 117 | 1.6 | 6.4 | 0.00 | 0.00 | 0.00 | 76 | 1021.5 |
| 20260503021556 | 9 | 117 | 3.2 | 9.7 | 0.00 | 0.00 | 0.00 | 76 | 1021.5 |
| 20260503021031 | 9 | 114 | 4.8 | 9.7 | 0.00 | 0.00 | 0.00 | 77 | 1021.5 |
| 20260503020531 | 9 | 121 | 4.8 | 9.7 | 0.00 | 0.00 | 0.00 | 76 | 1021.5 |
| 20260503020055 | 9 | 128 | 4.8 | 9.7 | 0.00 | 0.00 | 0.00 | 76 | 1021.5 |
| 20260503015531 | 9 | 126 | 4.8 | 9.7 | 0.00 | 0.00 | 0.00 | 76 | 1021.5 |
| 20260503015034 | 9 | 126 | 4.8 | 8.0 | 0.00 | 0.00 | 0.00 | 75 | 1021.5 |
| 20260503014619 | 10 | 127 | 4.8 | 9.7 | 0.00 | 0.00 | 0.00 | 74 | 1021.6 |
| 20260503014030 | 10 | 134 | 3.2 | 9.7 | 0.00 | 0.00 | 0.00 | 74 | 1021.6 |
| 20260503013530 | 10 | 107 | 4.8 | 9.7 | 0.00 | 0.00 | 0.00 | 74 | 1021.5 |
| 20260503013046 | 10 | 115 | 3.2 | 6.4 | 0.00 | 0.00 | 0.00 | 73 | 1021.6 |
| 20260503012530 | 10 | 111 | 3.2 | 6.4 | 0.00 | 0.00 | 0.00 | 72 | 1021.6 |
| 20260503012030 | 11 | 105 | 3.2 | 6.4 | 0.00 | 0.00 | 0.00 | 72 | 1021.6 |
| 20260503011555 | 11 | 96 | 1.6 | 4.8 | 0.00 | 0.00 | 0.00 | 72 | 1021.6 |
| 20260503011030 | 11 | 0 | 0.0 | 4.8 | 0.00 | 0.00 | 0.00 | 72 | 1021.7 |
| 20260503010530 | 11 | 0 | 0.0 | 4.8 | 0.00 | 0.00 | 0.00 | 72 | 1021.7 |
| 20260503010055 | 11 | 101 | 3.2 | 6.4 | 0.00 | 0.00 | 0.00 | 72 | 1021.7 |
| 20260503005531 | 11 | 112 | 3.2 | 6.4 | 0.00 | 0.00 | 0.00 | 72 | 1021.8 |
| 20260503005029 | 11 | 121 | 4.8 | 6.4 | 0.00 | 0.00 | 0.00 | 72 | 1021.8 |
| 20260503004558 | 10 | 113 | 3.2 | 6.4 | 0.00 | 0.00 | 0.00 | 73 | 1021.8 |
| 20260503004030 | 10 | 107 | 3.2 | 6.4 | 0.00 | 0.00 | 0.00 | 73 | 1021.8 |
| 20260503003530 | 10 | 130 | 3.2 | 9.7 | 0.00 | 0.00 | 0.00 | 73 | 1021.8 |
| 20260503003047 | 11 | 125 | 4.8 | 9.7 | 0.00 | 0.00 | 0.00 | 72 | 1021.9 |
| 20260503002530 | 11 | 123 | 4.8 | 8.0 | 0.00 | 0.00 | 0.00 | 72 | 1022.0 |
| 20260503002030 | 11 | 121 | 3.2 | 6.4 | 0.00 | 0.00 | 0.00 | 72 | 1021.9 |
| 20260503001553 | 11 | 119 | 4.8 | 6.4 | 0.00 | 0.00 | 0.00 | 73 | 1022.0 |
| 20260503001031 | 11 | 124 | 4.8 | 6.4 | 0.00 | 0.00 | 0.00 | 72 | 1022.0 |
| 20260503000532 | 11 | 132 | 4.8 | 11.3 | 0.00 | 0.00 | 0.00 | 71 | 1022.1 |
| 20260503000047 | 11 | 126 | 4.8 | 12.9 | 0.00 | 0.00 | 0.00 | 70 | 1022.1 |
| 20260502235530 | 11 | 119 | 8.0 | 12.9 | 0.00 | 0.00 | 0.00 | 69 | 1022.2 |
| 20260502235030 | 12 | 107 | 9.7 | 12.9 | 0.00 | 0.00 | 0.00 | 68 | 1022.1 |
| 20260502234549 | 12 | 93 | 3.2 | 11.3 | 0.00 | 0.00 | 0.00 | 68 | 1022.1 |
| 20260502234030 | 12 | 88 | 3.2 | 6.4 | 0.00 | 0.00 | 0.00 | 67 | 1022.1 |
| 20260502233529 | 12 | 99 | 3.2 | 6.4 | 0.00 | 0.00 | 0.00 | 67 | 1022.1 |
| 20260502233045 | 12 | 91 | 3.2 | 4.8 | 0.00 | 0.00 | 0.00 | 65 | 1022.2 |
| 20260502232529 | 12 | 0 | 0.0 | 3.2 | 0.00 | 0.00 | 0.00 | 65 | 1022.2 |
| 20260502232030 | 13 | 0 | 0.0 | 3.2 | 0.00 | 0.00 | 0.00 | 65 | 1022.1 |
| 20260502231541 | 13 | 0 | 0.0 | 3.2 | 0.00 | 0.00 | 0.00 | 64 | 1022.2 |
| 20260502231031 | 13 | 80 | 0.0 | 3.2 | 0.00 | 0.00 | 0.00 | 65 | 1022.2 |
| 20260502230531 | 13 | 0 | 0.0 | 3.2 | 0.00 | 0.00 | 0.00 | 64 | 1022.2 |
| 20260502230049 | 13 | 80 | 0.0 | 1.6 | 0.00 | 0.00 | 0.00 | 63 | 1022.2 |
| 20260502225532 | 13 | 0 | 0.0 | 1.6 | 0.00 | 0.00 | 0.00 | 62 | 1022.3 |
| 20260502225031 | 13 | 0 | 0.0 | 3.2 | 0.00 | 0.00 | 0.00 | 62 | 1022.2 |
| 20260502224602 | 13 | 0 | 0.0 | 3.2 | 0.00 | 0.00 | 0.00 | 62 | 1022.3 |
| 20260502224031 | 14 | 80 | 0.0 | 3.2 | 0.00 | 0.00 | 0.00 | 61 | 1022.4 |
| 20260502223530 | 14 | 0 | 0.0 | 1.6 | 0.00 | 0.00 | 0.00 | 61 | 1022.4 |
| 20260502223047 | 15 | 0 | 0.0 | 1.6 | 0.00 | 0.00 | 0.00 | 60 | 1022.4 |
| 20260502222530 | 15 | 0 | 0.0 | 3.2 | 0.00 | 0.00 | 0.00 | 61 | 1022.4 |
| 20260502222034 | 15 | 0 | 0.0 | 3.2 | 0.00 | 0.00 | 0.00 | 60 | 1022.4 |
| 20260502221547 | 15 | 118 | 0.0 | 3.2 | 0.00 | 0.00 | 0.00 | 60 | 1022.3 |
| 20260502221031 | 15 | 0 | 0.0 | 8.0 | 0.00 | 0.00 | 0.00 | 61 | 1022.3 |
| 20260502220532 | 15 | 155 | 3.2 | 8.0 | 0.00 | 0.00 | 0.00 | 61 | 1022.3 |
| 20260502220045 | 14 | 130 | 1.6 | 6.4 | 0.00 | 0.00 | 0.00 | 61 | 1022.4 |
| 20260502215532 | 14 | 133 | 1.6 | 4.8 | 0.00 | 0.00 | 0.00 | 61 | 1022.4 |
| 20260502215032 | 14 | 130 | 1.6 | 6.4 | 0.00 | 0.00 | 0.00 | 61 | 1022.4 |
| 20260502214549 | 14 | 135 | 1.6 | 8.0 | 0.00 | 0.00 | 0.00 | 61 | 1022.3 |
| 20260502214031 | 14 | 132 | 3.2 | 8.0 | 0.00 | 0.00 | 0.00 | 61 | 1022.4 |
| 20260502213531 | 14 | 143 | 3.2 | 8.0 | 0.00 | 0.00 | 0.00 | 61 | 1022.4 |
| 20260502213053 | 15 | 135 | 3.2 | 8.0 | 0.00 | 0.00 | 0.00 | 61 | 1022.5 |
| 20260502212533 | 15 | 135 | 1.6 | 4.8 | 0.00 | 0.00 | 0.00 | 60 | 1022.4 |
| 20260502212032 | 15 | 130 | 3.2 | 6.4 | 0.00 | 0.00 | 0.00 | 60 | 1022.4 |
| 20260502211559 | 15 | 147 | 3.2 | 6.4 | 0.00 | 0.00 | 0.00 | 60 | 1022.4 |
| 20260502211032 | 15 | 153 | 1.6 | 4.8 | 0.00 | 0.00 | 0.00 | 60 | 1022.4 |
| 20260502210534 | 15 | 166 | 0.0 | 8.0 | 0.00 | 0.00 | 0.00 | 59 | 1022.4 |
| 20260502210045 | 15 | 166 | 1.6 | 9.7 | 0.00 | 0.00 | 0.00 | 59 | 1022.4 |
| 20260502205532 | 15 | 164 | 4.8 | 9.7 | 0.00 | 0.00 | 0.00 | 59 | 1022.3 |
| 20260502205033 | 15 | 156 | 4.8 | 11.3 | 0.00 | 0.00 | 0.00 | 58 | 1022.4 |
| 20260502204543 | 15 | 152 | 4.8 | 17.7 | 0.00 | 0.00 | 0.00 | 58 | 1022.4 |
| 20260502204032 | 15 | 151 | 4.8 | 17.7 | 0.00 | 0.00 | 0.00 | 57 | 1022.4 |
| 20260502203531 | 15 | 151 | 4.8 | 17.7 | 0.00 | 0.00 | 0.00 | 57 | 1022.4 |
| 20260502203058 | 15 | 141 | 4.8 | 12.9 | 0.00 | 0.00 | 0.00 | 57 | 1022.4 |
| 20260502202531 | 15 | 161 | 4.8 | 14.5 | 0.00 | 0.00 | 0.00 | 57 | 1022.4 |
| 20260502202032 | 15 | 143 | 6.4 | 14.5 | 0.00 | 0.00 | 0.00 | 57 | 1022.5 |
| 20260502201556 | 15 | 144 | 4.8 | 11.3 | 0.00 | 0.00 | 0.00 | 56 | 1022.5 |
| 20260502201032 | 15 | 143 | 4.8 | 14.5 | 0.00 | 0.00 | 0.00 | 56 | 1022.5 |
| 20260502200532 | 15 | 146 | 6.4 | 14.5 | 0.00 | 0.00 | 0.00 | 56 | 1022.5 |
| 20260502200051 | 15 | 143 | 8.0 | 14.5 | 0.00 | 0.00 | 0.00 | 55 | 1022.4 |
| 20260502195532 | 14 | 152 | 6.4 | 16.1 | 0.00 | 0.00 | 0.00 | 54 | 1022.4 |
| 20260502195031 | 14 | 160 | 6.4 | 17.7 | 0.00 | 0.00 | 0.00 | 51 | 1022.4 |
| 20260502194600 | 15 | 160 | 12.9 | 17.7 | 0.00 | 0.00 | 0.00 | 49 | 1022.3 |
| 20260502194031 | 15 | 161 | 12.9 | 16.1 | 0.00 | 0.00 | 0.00 | 48 | 1022.2 |
| 20260502193540 | 15 | 167 | 9.7 | 12.9 | 0.00 | 0.00 | 0.00 | 48 | 1022.1 |
| 20260502193055 | 16 | 150 | 6.4 | 11.3 | 0.00 | 0.00 | 0.00 | 48 | 1022.0 |
| 20260502192532 | 15 | 150 | 8.0 | 12.9 | 0.00 | 0.00 | 0.00 | 47 | 1021.9 |
| 20260502192032 | 15 | 156 | 8.0 | 12.9 | 0.00 | 0.00 | 0.00 | 48 | 1021.9 |
| 20260502191548 | 16 | 151 | 8.0 | 12.9 | 0.00 | 0.00 | 0.00 | 46 | 1021.8 |
| 20260502191030 | 18 | 148 | 3.2 | 6.4 | 0.00 | 0.00 | 0.00 | 43 | 1021.7 |
| 20260502190531 | 18 | 78 | 4.8 | 6.4 | 0.00 | 0.00 | 0.00 | 42 | 1021.6 |
| 20260502190052 | 17 | 82 | 1.6 | 8.0 | 0.00 | 0.00 | 0.00 | 42 | 1021.6 |
| 20260502185530 | 17 | 137 | 3.2 | 8.0 | 0.00 | 0.00 | 0.00 | 42 | 1021.7 |
| 20260502185030 | 18 | 150 | 3.2 | 6.4 | 0.00 | 0.00 | 0.00 | 42 | 1021.6 |
| 20260502184555 | 18 | 142 | 1.6 | 4.8 | 0.00 | 0.00 | 0.00 | 40 | 1021.6 |
| 20260502184031 | 19 | 109 | 1.6 | 4.8 | 0.00 | 0.00 | 0.00 | 39 | 1021.6 |
| 20260502183531 | 19 | 120 | 1.6 | 3.2 | 0.00 | 0.00 | 0.00 | 38 | 1021.5 |